Location: Berg
(48.5667°N, 13.9833°E)
Time: 18:59:01
(UTC+00:00)

ATLAS 2AS CENTAUR R/B - Pass Details

Date: 09 April 2020
Orbit: 931 x 1280 km, 63.7° (Epoch: 31 May)

Event Time Altitude Azimuth Distance (km) Brightness Sun altitude
Rises 18:05:57 0° 318° (NW) 4,199 6.9 -3.9°
Reaches altitude 10° 18:08:50 10° 319° (NW) 3,195 6.3 -4.3°
Maximum altitude 18:16:33 89° 45° (NE) 1,168 3.0 -5.5°
Drops below altitude 10° 18:23:36 10° 141° (SE) 2,933 4.5 -6.6°
Enters shadow 18:25:27 - 141° (SE) 3,593 4.9 -6.9°
